[Iaude] MPEC G214: 2024 GF6 [a=1.45,e=0.33,i=9.5,H=26.8]
    mpec at cfa.harvard.edu 
    mpec at cfa.harvard.edu
       
    Mon Apr 15 09:02:55 EDT 2024
    
    
  
M.P.E.C. 2024-G214                               Issued 2024 April 15, 13:01 UT
     The Minor Planet Electronic Circulars contain information on unusual
         minor planets, routine data on comets and natural satellites,
         and occasional editorial announcements.  They are published
    on behalf of Division F of the International Astronomical Union by the
          Minor Planet Center, Smithsonian Astrophysical Observatory,
                          Cambridge, MA 02138, U.S.A.
			  
             Prepared using the Tamkin Foundation Computer Network
                              MPC at CFA.HARVARD.EDU
            URL https://www.minorplanetcenter.net/    ISSN 1523-6714
                                    2024 GF6                                    
Observations:
     K24G06F*1C2024 04 14.25758011 55 03.281+45 49 06.20         20.86GVEG214G96
     K24G06F 1C2024 04 14.26279011 54 59.252+45 49 14.45         20.84GVEG214G96
     K24G06F 1C2024 04 14.26798611 54 55.181+45 49 22.55         20.94GVEG214G96
     K24G06F 1C2024 04 14.27317711 54 51.080+45 49 31.69         20.71GVEG214G96
     K24G06F  C2024 04 14.30968511 54 21.503+45 50 11.54         20.9 GVEG214H01
     K24G06F  C2024 04 14.31363511 54 18.459+45 50 16.50         20.7 GVEG214H01
     K24G06F  C2024 04 14.32300811 54 11.242+45 50 27.87         20.8 GVEG214H01
     K24G06F  C2024 04 14.33091111 54 05.178+45 50 37.13         20.9 GVEG214H01
     K24G06F KC2024 04 14.37734511 53 30.671+45 51 39.92         21.39GVEG214I52
     K24G06F KC2024 04 14.37947911 53 29.116+45 51 42.26         21.13GVEG214I52
     K24G06F KC2024 04 14.38162311 53 27.431+45 51 44.10         21.06GVEG214I52
     K24G06F KB2024 04 14.82724 11 48 41.86 +46 05 31.1          20.8 RZEG214106
     K24G06F KB2024 04 14.83378 11 48 36.07 +46 05 46.0          20.4 RZEG214106
     K24G06F KB2024 04 14.84031 11 48 30.27 +46 06 01.3          20.5 RZEG214106
     K24G06F KB2024 04 14.84737 11 48 23.90 +46 06 16.9          20.7 RZEG214106
     K24G06F KB2024 04 15.10789 11 45 02.650+46 15 19.19         20.9 GVEG214H36
     K24G06F KC2024 04 15.11179711 44 55.43 +46 15 36.7          21.1 GVEG214H21
     K24G06F KC2024 04 15.11739211 44 49.88 +46 15 50.2          21.2 GVEG214H21
     K24G06F KC2024 04 15.12158711 44 45.67 +46 16 00.2          21.1 GVEG214H21
     K24G06F KB2024 04 15.13083 11 44 39.862+46 16 18.16         20.9 GVEG214H36
     K24G06F KC2024 04 15.15836011 44 19.568+46 17 43.73         20.73GVEG214I52
     K24G06F KC2024 04 15.15943911 44 18.456+46 17 46.82         20.99GVEG214I52
     K24G06F KC2024 04 15.16050811 44 17.416+46 17 49.27         20.67GVEG214I52
     K24G06F KC2024 04 15.16157511 44 16.318+46 17 52.08         20.75GVEG214I52
Observer details:
106 Crni Vrh.  Observer H. Mikuz.  0.60-m f/3.3 reflector + CMO.
G96 Mt. Lemmon Survey.  Observer K. W. Wierzchos.  Measurers T. Beuden, V. F.
    Carvajal, D. Fay, J. B. Fazekas, D. C. Fuls, A. R. Gibbs, A. D. Grauer, H.
    Groeller, J. K. Hogan, R. A. Kowalski, S. M. Larson, G. J. Leonard, D.
    Rankin, R. L. Seaman, F. C. Shelly, K. W. Wierzchos.  1.5-m reflector +
    10K CCD.
H01 Magdalena Ridge Observatory, Socorro.  Observers W. H. Ryan, E. V. Ryan.
    Measurer W. H. Ryan.  2.4-m f/8.9 Ritchey-Chretien + CCD.
H21 Astronomical Research Observatory, Westfield.  Observer R. Holmes.
    Measurers T. Linder, R. Holmes, L. Horn.  0.76-m f/3.0 astrograph + CCD.
H36 Sandlot Observatory, Scranton.  Observer G. Hug.  0.56-m f/4.8 .56 meter
    Reflector + CCD.
I52 Steward Observatory, Mt. Lemmon Station.  Observers D. Rankin, J. B.
    Fazekas, T. Beuden.  Measurers T. Beuden, V. F. Carvajal, D. Fay, J. B.
    Fazekas, D. C. Fuls, A. R. Gibbs, A. D. Grauer, H. Groeller, J. K. Hogan,
    R. A. Kowalski, S. M. Larson, G. J. Leonard, D. Rankin, R. L. Seaman, F.
    C. Shelly, K. W. Wierzchos.  1.0-m prime focus + CCD.
Orbital elements:
2024 GF6                                                 Earth MOID = 0.0021 AU
Epoch 2024 Mar. 31.0 TT = JDT 2460400.5                 Veres                   
M 333.97555              (2000.0)            P               Q                  
n   0.56516423     Peri.  210.09659     -0.50167977     +0.86111689             
a   1.4488373      Node    30.01906     -0.75717581     -0.39103658             
e   0.3317518      Incl.    9.48387     -0.41833265     -0.32491245             
P   1.74           H   26.84          G   0.15           U   7                  
Residuals in seconds of arc
240414 G96  0.1-  0.5+    240414 I52  0.0   0.3-    240415 H21  0.1-  0.2+
240414 G96  0.2+  0.0     240414 I52  0.6+  0.1+    240415 H21  0.0   0.0
240414 G96  0.0   0.4-    240414 I52  0.2-  0.0     240415 H21  0.3-  0.1-
240414 G96  0.6-  0.5+    240414 106  0.1+  0.3+    240415 H36  0.2+  0.1-
240414 H01  0.0   0.0     240414 106  0.2+  0.0     240415 I52  0.2+  0.1-
240414 H01  0.0   0.0     240414 106  0.5+  0.3+    240415 I52  0.0   0.2+
240414 H01  0.0   0.1-    240414 106  0.0   0.1+    240415 I52  0.5+  0.2-
240414 H01  0.0   0.0     240415 H36  1.0+  0.2-    240415 I52  0.4+  0.2-
Ephemeris:
2024 GF6                 a,e,i = 1.45, 0.33, 9                   q = 0.9682
Date    TT    R. A. (2000) Decl.     Delta      r    Elong.  Phase     V
2024 03 16    12 46 31.4 +38 08 55   0.1707  1.1323   140.9    33.7    24.7
...
2024 03 31    12 40 19.8 +41 46 55   0.09627 1.0682   134.1    42.2    23.5
...
2024 04 08    12 27 37.6 +43 38 39   0.05849 1.0386   128.4    49.1    22.6
...
2024 04 14    11 57 40.8 +45 40 24   0.03062 1.0192   121.2    57.3    21.4
2024 04 15    11 46 19.1 +46 11 21   0.02603 1.0162   119.1    59.6    21.1
2024 04 16    11 29 53.7 +46 46 42   0.02149 1.0133   116.4    62.5    20.8
...
2024 04 22    03 18 30.7 -19 52 07   0.0096080.9975    37.5   142.2    23.9
...
2024 04 30    01 26 55.1 -38 19 11   0.04571 0.9818    55.1   122.7    25.2
...
2024 05 15    01 10 43.1 -38 44 47   0.1152  0.9696    65.9   107.8    26.1
M. P. C. Staff               (C) Copyright 2024 MPC           M.P.E.C. 2024-G214
    
    
More information about the Iaude
mailing list